Location: La Pernelle
(49.6188°N, 1.2999°W)
Time: 15:17:46
(UTC+00:00)

NOSS 3-2 (C) - Pass Details

Date: 12 June 2021
Orbit: 778 x 1434 km, 63.4° (Epoch: 14 July)

Event Time Altitude Azimuth Distance (km) Brightness Sun altitude
Rises 22:18:03 0° 226° (SW) 3,348 6.1 -13.4°
Reaches altitude 10° 22:20:22 10° 228° (SW) 2,472 5.5 -13.5°
Maximum altitude 22:26:04 77° 315° (NW) 963 3.6 -13.9°
Drops below altitude 10° 22:32:46 10° 42° (NE) 2,883 6.3 -14.3°
Sets 22:35:39 0° 44° (NE) 3,946 7.0 -14.5°
